TimeEDT,TemperatureF,Dew PointF,Humidity,Sea Level PressureIn,VisibilityMPH,Wind Direction,Wind SpeedMPH,Gust SpeedMPH,PrecipitationIn,Events,Conditions,WindDirDegrees,DateUTC
12:15 AM,71.6,68.0,88,30.01,10.0,NE,12.7,18.4,N/A,,Overcast,40,2013-05-03 04:15:00
12:35 AM,71.6,68.0,88,30.01,10.0,NE,13.8,17.3,N/A,,Overcast,40,2013-05-03 04:35:00
12:55 AM,71.6,68.0,88,30.00,10.0,NE,12.7,19.6,N/A,,Overcast,50,2013-05-03 04:55:00
1:15 AM,71.6,68.0,88,29.99,10.0,NE,13.8,21.9,N/A,,Mostly Cloudy,50,2013-05-03 05:15:00
1:35 AM,71.6,68.0,88,29.98,10.0,NE,13.8,23.0,N/A,,Scattered Clouds,40,2013-05-03 05:35:00
1:55 AM,71.6,68.0,88,29.97,10.0,NE,15.0,25.3,N/A,,Mostly Cloudy,40,2013-05-03 05:55:00
2:15 AM,71.6,66.2,83,29.96,10.0,NE,13.8,21.9,N/A,,Overcast,50,2013-05-03 06:15:00
2:35 AM,71.6,66.2,83,29.95,10.0,NE,15.0,19.6,N/A,,Overcast,40,2013-05-03 06:35:00
2:55 AM,71.6,66.2,83,29.95,10.0,NE,15.0,18.4,N/A,,Overcast,50,2013-05-03 06:55:00
3:15 AM,71.6,66.2,83,29.94,10.0,NE,10.4,18.4,N/A,,Mostly Cloudy,50,2013-05-03 07:15:00
3:35 AM,71.6,66.2,83,29.94,10.0,NE,16.1,21.9,N/A,,Mostly Cloudy,50,2013-05-03 07:35:00
3:55 AM,71.6,66.2,83,29.93,10.0,NE,13.8,19.6,N/A,,Overcast,50,2013-05-03 07:55:00
4:15 AM,71.6,66.2,83,29.93,10.0,NE,16.1,25.3,N/A,,Overcast,40,2013-05-03 08:15:00
4:35 AM,71.6,66.2,83,29.94,10.0,NE,13.8,17.3,N/A,,Overcast,50,2013-05-03 08:35:00
4:55 AM,71.6,68.0,88,29.94,10.0,NE,11.5,-,N/A,,Overcast,40,2013-05-03 08:55:00
5:15 AM,71.6,66.2,83,29.95,10.0,NE,16.1,-,N/A,,Overcast,40,2013-05-03 09:15:00
5:35 AM,71.6,68.0,88,29.95,10.0,NE,15.0,23.0,N/A,,Overcast,40,2013-05-03 09:35:00
5:55 AM,69.8,68.0,94,29.95,7.0,NE,10.4,18.4,N/A,,Overcast,50,2013-05-03 09:55:00
6:15 AM,69.8,68.0,94,29.95,7.0,NE,10.4,19.6,N/A,,Overcast,40,2013-05-03 10:15:00
6:35 AM,69.8,68.0,94,29.95,7.0,NE,11.5,-,N/A,,Mostly Cloudy,40,2013-05-03 10:35:00
6:55 AM,69.8,68.0,94,29.95,7.0,NE,9.2,-,N/A,,Overcast,40,2013-05-03 10:55:00
7:15 AM,69.8,68.0,94,29.95,7.0,NE,11.5,-,N/A,,Overcast,40,2013-05-03 11:15:00
7:35 AM,69.8,68.0,94,29.95,7.0,NE,12.7,19.6,N/A,,Overcast,40,2013-05-03 11:35:00
7:55 AM,69.8,68.0,94,29.96,7.0,NE,8.1,17.3,N/A,,Overcast,40,2013-05-03 11:55:00
8:15 AM,69.8,68.0,94,29.96,10.0,NE,10.4,-,N/A,,Mostly Cloudy,40,2013-05-03 12:15:00
8:35 AM,71.6,68.0,88,29.96,10.0,NE,12.7,18.4,N/A,,Mostly Cloudy,40,2013-05-03 12:35:00
8:55 AM,71.6,68.0,88,29.96,10.0,NE,11.5,17.3,N/A,,Mostly Cloudy,50,2013-05-03 12:55:00
9:15 AM,71.6,68.0,88,29.96,10.0,ENE,13.8,-,N/A,,Overcast,60,2013-05-03 13:15:00
9:35 AM,73.4,68.0,83,29.97,10.0,ENE,16.1,25.3,N/A,,Overcast,70,2013-05-03 13:35:00
9:55 AM,71.6,68.0,88,29.97,10.0,ENE,19.6,-,N/A,,Overcast,70,2013-05-03 13:55:00
10:15 AM,71.6,68.0,88,29.96,10.0,NE,15.0,21.9,N/A,,Overcast,50,2013-05-03 14:15:00
10:35 AM,71.6,68.0,88,29.96,7.0,ENE,19.6,27.6,N/A,,Overcast,60,2013-05-03 14:35:00
10:55 AM,71.6,68.0,88,29.97,10.0,NE,19.6,26.5,N/A,,Overcast,50,2013-05-03 14:55:00
11:15 AM,69.8,68.0,94,29.97,7.0,ENE,21.9,28.8,N/A,,Overcast,60,2013-05-03 15:15:00
11:35 AM,69.8,68.0,94,29.97,7.0,ENE,15.0,24.2,N/A,,Overcast,60,2013-05-03 15:35:00
11:55 AM,71.6,68.0,88,29.97,5.0,ENE,16.1,21.9,N/A,,Overcast,70,2013-05-03 15:55:00
12:15 PM,71.6,68.0,88,29.97,4.0,ENE,15.0,24.2,N/A,,Overcast,60,2013-05-03 16:15:00
12:35 PM,69.8,68.0,94,29.96,7.0,ENE,20.7,-,N/A,,Overcast,60,2013-05-03 16:35:00
12:55 PM,71.6,68.0,88,29.96,7.0,ENE,15.0,21.9,N/A,,Overcast,70,2013-05-03 16:55:00
1:15 PM,71.6,68.0,88,29.95,7.0,ENE,16.1,24.2,N/A,,Overcast,70,2013-05-03 17:15:00
1:35 PM,71.6,68.0,88,29.95,10.0,ENE,16.1,-,N/A,,Overcast,70,2013-05-03 17:35:00
1:55 PM,73.4,68.0,83,29.95,10.0,East,17.3,-,N/A,,Overcast,80,2013-05-03 17:55:00
2:15 PM,71.6,68.0,88,29.95,10.0,East,18.4,21.9,N/A,,Overcast,90,2013-05-03 18:15:00
2:35 PM,73.4,66.2,78,29.95,10.0,East,15.0,21.9,N/A,,Overcast,90,2013-05-03 18:35:00
2:55 PM,73.4,66.2,78,29.94,10.0,ENE,13.8,23.0,N/A,,Overcast,70,2013-05-03 18:55:00
3:15 PM,73.4,66.2,78,29.94,10.0,ENE,17.3,20.7,N/A,,Overcast,70,2013-05-03 19:15:00
3:35 PM,71.6,66.2,83,29.93,10.0,ENE,13.8,-,N/A,,Overcast,70,2013-05-03 19:35:00
3:55 PM,71.6,68.0,88,29.93,7.0,ENE,15.0,21.9,N/A,,Overcast,60,2013-05-03 19:55:00
4:15 PM,71.6,68.0,88,29.92,7.0,ENE,17.3,23.0,N/A,,Overcast,70,2013-05-03 20:15:00
4:35 PM,71.6,68.0,88,29.92,7.0,ENE,17.3,-,N/A,,Overcast,70,2013-05-03 20:35:00
4:55 PM,71.6,68.0,88,29.92,10.0,ENE,12.7,-,N/A,,Overcast,70,2013-05-03 20:55:00
5:15 PM,71.6,68.0,88,29.92,7.0,ENE,11.5,17.3,N/A,,Overcast,70,2013-05-03 21:15:00
5:35 PM,71.6,66.2,83,29.92,10.0,ENE,16.1,-,N/A,,Mostly Cloudy,70,2013-05-03 21:35:00
5:55 PM,71.6,64.4,78,29.92,10.0,ENE,12.7,-,N/A,,Overcast,60,2013-05-03 21:55:00
6:15 PM,71.6,64.4,78,29.92,10.0,ENE,15.0,23.0,N/A,,Overcast,60,2013-05-03 22:15:00
6:35 PM,71.6,64.4,78,29.92,10.0,ENE,12.7,-,N/A,,Overcast,70,2013-05-03 22:35:00
6:55 PM,71.6,64.4,78,29.92,10.0,ENE,16.1,-,N/A,,Overcast,70,2013-05-03 22:55:00
7:15 PM,71.6,64.4,78,29.92,10.0,ENE,17.3,24.2,N/A,,Overcast,70,2013-05-03 23:15:00
7:35 PM,71.6,64.4,78,29.92,10.0,ENE,17.3,25.3,N/A,,Overcast,70,2013-05-03 23:35:00
7:55 PM,69.8,64.4,83,29.92,10.0,ENE,16.1,21.9,N/A,,Overcast,70,2013-05-03 23:55:00
8:15 PM,69.8,64.4,83,29.93,10.0,ENE,12.7,-,N/A,,Overcast,60,2013-05-04 00:15:00
8:35 PM,69.8,64.4,83,29.93,10.0,ENE,17.3,-,N/A,,Overcast,70,2013-05-04 00:35:00
8:55 PM,71.6,60.8,69,29.93,10.0,East,18.4,25.3,N/A,,Overcast,80,2013-05-04 00:55:00
9:15 PM,71.6,60.8,69,29.93,10.0,East,18.4,24.2,N/A,,Scattered Clouds,80,2013-05-04 01:15:00
9:35 PM,71.6,60.8,69,29.93,10.0,ENE,15.0,25.3,N/A,,Clear,70,2013-05-04 01:35:00
9:55 PM,71.6,62.6,73,29.93,10.0,ENE,16.1,20.7,N/A,,Scattered Clouds,70,2013-05-04 01:55:00
10:15 PM,71.6,62.6,73,29.92,10.0,ENE,15.0,-,N/A,,Clear,70,2013-05-04 02:15:00
10:35 PM,71.6,62.6,73,29.92,10.0,ENE,17.3,21.9,N/A,,Scattered Clouds,70,2013-05-04 02:35:00
10:55 PM,71.6,60.8,69,29.92,10.0,ENE,18.4,26.5,N/A,,Scattered Clouds,70,2013-05-04 02:55:00
11:15 PM,71.6,62.6,73,29.91,10.0,East,16.1,23.0,N/A,,Scattered Clouds,80,2013-05-04 03:15:00
11:35 PM,71.6,62.6,73,29.90,10.0,East,20.7,28.8,N/A,,Mostly Cloudy,80,2013-05-04 03:35:00
11:55 PM,71.6,62.6,73,29.91,10.0,East,16.1,23.0,N/A,,Mostly Cloudy,90,2013-05-04 03:55:00